QPF
0.03 0.03 0.02 0.02 0.02 0.01 0.01 0.00 0.00 0.00 0.00 0.00 0.00 0.00 0.00 0.00 0.00 0.00 0.00 0.00 0.00 0.00 0.00 0.00 0.00 0.00 0.01 0.01 0.01 0.01 0.01 0.01 0.01 0.01 0.01 0.01 0.00 0.00 0.01 0.01 0.01 0.01 0.01
0.03 0.04 0.02 0.02 0.01 0.02 0.01 0.01 0.00 0.00 0.00 0.00 0.00 0.00 0.00 0.00 0.00 0.00 0.00 0.00 0.00 0.00 0.00 0.00 0.00 0.01 0.01 0.01 0.02 0.01 0.01 0.00 0.00 0.00 0.01 0.01 0.01 0.01 0.01 0.01 0.01 0.01 0.01
0.05 0.04 0.04 0.03 0.02 0.02 0.01 0.01 0.00 0.00 0.00 0.00 0.00 0.00 0.00 0.00 0.00 0.00 0.00 0.00 0.00 0.00 0.00 0.00 0.00 0.01 0.01 0.01 0.02 0.01 0.01 0.01 0.00 0.00 0.01 0.01 0.00 0.00 0.00 0.01 0.01 0.01 0.01
0.08 0.07 0.05 0.04 0.03 0.03 0.02 0.01 0.01 0.00 0.00 0.00 0.00 0.00 0.00 0.00 0.00 0.00 0.00 0.00 0.00 0.00 0.00 0.00 0.00 0.00 0.01 0.01 0.02 0.02 0.02 0.01 0.01 0.01 0.01 0.00 0.00 0.00 0.01 0.01 0.01 0.01 0.01
0.09 0.08 0.07 0.06 0.05 0.03 0.02 0.02 0.02 0.01 0.01 0.00 0.00 0.00 0.00 0.00 0.00 0.00 0.00 0.00 0.00 0.00 0.00 0.00 0.00 0.00 0.00 0.01 0.02 0.03 0.02 0.02 0.01 0.01 0.01 0.01 0.01 0.01 0.01 0.01 0.00 0.01 0.01
0.09 0.09 0.07 0.06 0.05 0.04 0.04 0.03 0.02 0.02 0.01 0.01 0.01 0.00 0.00 0.00 0.00 0.00 0.00 0.00 0.01 0.00 0.00 0.00 0.00 0.00 0.00 0.00 0.01 0.02 0.02 0.01 0.01 0.01 0.01 0.01 0.01 0.01 0.01 0.00 0.00 0.01 0.01
0.09 0.08 0.08 0.06 0.05 0.04 0.04 0.04 0.04 0.03 0.02 0.02 0.02 0.01 0.01 0.01 0.00 0.00 0.00 0.00 0.00 0.00 0.00 0.00 0.00 0.00 0.00 0.00 0.01 0.01 0.01 0.01 0.01 0.01 0.01 0.01 0.01 0.02 0.01 0.01 0.01 0.02 0.02
0.13 0.11 0.09 0.08 0.06 0.04 0.04 0.05 0.05 0.04 0.03 0.03 0.03 0.02 0.02 0.01 0.01 0.00 0.00 0.00 0.00 0.00 0.00 0.00 0.01 0.01 0.01 0.01 0.01 0.01 0.01 0.01 0.02 0.02 0.02 0.01 0.02 0.02 0.02 0.02 0.02 0.02 0.02
0.14 0.14 0.12 0.11 0.09 0.06 0.05 0.05 0.05 0.05 0.04 0.03 0.03 0.03 0.02 0.02 0.01 0.00 0.00 0.00 0.00 0.01 0.01 0.02 0.02 0.02 0.02 0.02 0.02 0.02 0.01 0.01 0.02 0.02 0.02 0.03 0.03 0.02 0.02 0.03 0.02 0.02 0.01
0.16 0.13 0.13 0.12 0.11 0.09 0.06 0.05 0.05 0.05 0.05 0.04 0.04 0.03 0.02 0.01 0.01 0.01 0.00 0.00 0.01 0.01 0.01 0.02 0.02 0.02 0.02 0.02 0.02 0.02 0.02 0.01 0.02 0.02 0.03 0.04 0.04 0.03 0.03 0.03 0.02 0.02 0.01
0.19 0.15 0.13 0.14 0.13 0.11 0.09 0.07 0.05 0.04 0.04 0.04 0.04 0.03 0.03 0.03 0.02 0.02 0.01 0.01 0.01 0.01 0.01 0.01 0.01 0.02 0.02 0.02 0.02 0.02 0.02 0.01 0.01 0.02 0.03 0.04 0.03 0.03 0.02 0.03 0.03 0.02 0.02
0.18 0.16 0.14 0.13 0.12 0.11 0.09 0.08 0.07 0.05 0.04 0.03 0.03 0.03 0.04 0.04 0.04 0.04 0.03 0.02 0.02 0.02 0.01 0.02 0.02 0.02 0.02 0.02 0.02 0.02 0.02 0.02 0.02 0.02 0.03 0.02 0.02 0.02 0.02 0.02 0.03 0.02 0.02
0.11 0.12 0.12 0.11 0.10 0.09 0.09 0.08 0.07 0.06 0.05 0.04 0.03 0.03 0.03 0.03 0.03 0.04 0.04 0.03 0.02 0.01 0.01 0.01 0.01 0.01 0.02 0.02 0.02 0.03 0.03 0.03 0.02 0.02 0.02 0.02 0.01 0.01 0.01 0.01 0.02 0.01 0.01
0.08 0.08 0.10 0.10 0.09 0.09 0.08 0.07 0.07 0.06 0.05 0.04 0.03 0.02 0.02 0.02 0.02 0.03 0.03 0.04 0.04 0.03 0.02 0.02 0.02 0.02 0.02 0.03 0.03 0.03 0.03 0.02 0.02 0.02 0.02 0.01 0.01 0.01 0.01 0.01 0.01 0.01 0.01
0.08 0.08 0.10 0.11 0.10 0.09 0.08 0.06 0.05 0.05 0.05 0.04 0.03 0.03 0.03 0.02 0.03 0.04 0.04 0.04 0.05 0.05 0.03 0.03 0.03 0.03 0.04 0.04 0.05 0.04 0.03 0.02 0.02 0.02 0.02 0.02 0.01 0.01 0.01 0.01 0.01 0.01 0.01
0.09 0.09 0.10 0.11 0.10 0.08 0.08 0.08 0.06 0.05 0.05 0.05 0.05 0.05 0.04 0.04 0.05 0.06 0.06 0.06 0.07 0.07 0.06 0.04 0.04 0.04 0.04 0.05 0.05 0.04 0.03 0.03 0.03 0.02 0.02 0.01 0.01 0.01 0.01 0.01 0.01 0.01 0.01
0.10 0.10 0.10 0.12 0.11 0.09 0.08 0.08 0.08 0.07 0.06 0.05 0.05 0.05 0.06 0.06 0.06 0.07 0.07 0.07 0.07 0.08 0.07 0.05 0.03 0.03 0.03 0.03 0.04 0.04 0.04 0.03 0.03 0.04 0.03 0.02 0.02 0.01 0.01 0.01 0.00 0.01 0.01
0.14 0.14 0.14 0.15 0.14 0.12 0.10 0.09 0.09 0.09 0.08 0.07 0.07 0.06 0.06 0.06 0.06 0.06 0.07 0.07 0.07 0.07 0.06 0.06 0.04 0.04 0.04 0.04 0.04 0.04 0.04 0.05 0.05 0.05 0.04 0.03 0.02 0.02 0.01 0.01 0.00 0.00 0.01
0.15 0.17 0.18 0.18 0.17 0.15 0.13 0.11 0.10 0.10 0.09 0.09 0.09 0.08 0.07 0.07 0.07 0.07 0.07 0.07 0.07 0.07 0.08 0.07 0.06 0.06 0.06 0.06 0.06 0.05 0.05 0.05 0.05 0.05 0.04 0.03 0.02 0.02 0.01 0.01 0.00 0.00 0.00
0.12 0.16 0.19 0.20 0.19 0.17 0.16 0.15 0.14 0.12 0.11 0.10 0.10 0.10 0.09 0.09 0.09 0.09 0.10 0.10 0.10 0.11 0.10 0.10 0.08 0.07 0.07 0.07 0.07 0.07 0.07 0.06 0.06 0.05 0.05 0.03 0.02 0.02 0.01 0.01 0.00 0.00 0.00
0.12 0.14 0.16 0.18 0.21 0.21 0.19 0.16 0.15 0.15 0.14 0.12 0.11 0.10 0.11 0.12 0.12 0.12 0.13 0.13 0.13 0.13 0.12 0.11 0.09 0.08 0.07 0.07 0.07 0.07 0.07 0.07 0.06 0.05 0.05 0.04 0.03 0.02 0.01 0.01 0.00 0.00 0.00
0.12 0.12 0.13 0.14 0.15 0.17 0.19 0.19 0.18 0.17 0.16 0.15 0.14 0.13 0.12 0.13 0.14 0.14 0.14 0.14 0.14 0.14 0.14 0.13 0.11 0.09 0.08 0.07 0.08 0.08 0.08 0.08 0.07 0.05 0.04 0.03 0.02 0.02 0.01 0.00 0.00 0.00 0.00
0.12 0.12 0.11 0.10 0.10 0.11 0.14 0.14 0.14 0.13 0.13 0.12 0.11 0.11 0.10 0.11 0.12 0.11 0.12 0.13 0.13 0.14 0.14 0.13 0.12 0.10 0.09 0.09 0.09 0.08 0.07 0.06 0.05 0.04 0.03 0.03 0.02 0.02 0.01 0.01 0.01 0.00 0.00
0.08 0.10 0.10 0.10 0.09 0.08 0.09 0.10 0.11 0.11 0.10 0.10 0.09 0.09 0.09 0.08 0.08 0.09 0.10 0.11 0.11 0.11 0.12 0.11 0.11 0.11 0.11 0.11 0.10 0.08 0.07 0.06 0.05 0.05 0.03 0.02 0.02 0.02 0.01 0.01 0.01 0.00 0.00
0.05 0.05 0.05 0.06 0.06 0.06 0.06 0.06 0.06 0.07 0.08 0.08 0.08 0.09 0.09 0.08 0.09 0.10 0.10 0.10 0.11 0.11 0.12 0.13 0.12 0.12 0.13 0.12 0.12 0.10 0.07 0.05 0.05 0.05 0.04 0.02 0.01 0.01 0.01 0.01 0.00 0.00 0.00
0.05 0.04 0.04 0.04 0.04 0.04 0.05 0.05 0.05 0.04 0.04 0.05 0.06 0.07 0.09 0.10 0.12 0.13 0.11 0.11 0.11 0.11 0.12 0.14 0.13 0.12 0.11 0.10 0.10 0.08 0.07 0.05 0.04 0.04 0.03 0.02 0.01 0.01 0.01 0.00 0.00 0.00 0.00
MSLP
1014.76 1015.20 1015.64 1016.08 1016.52 1016.97 1017.40 1017.79 1018.13 1018.39 1018.57 1018.68 1018.74 1018.76 1018.76 1018.77 1018.79 1018.84 1018.88 1018.93 1018.96 1018.96 1018.93 1018.89 1018.83 1018.78 1018.75 1018.75 1018.78 1018.85 1018.93 1019.04 1019.14 1019.24 1019.32 1019.38 1019.42 1019.42 1019.39 1019.31 1019.18 1019.01 1018.83
1014.54 1014.96 1015.40 1015.86 1016.35 1016.85 1017.34 1017.79 1018.17 1018.45 1018.64 1018.73 1018.74 1018.71 1018.66 1018.62 1018.61 1018.63 1018.67 1018.72 1018.76 1018.78 1018.77 1018.74 1018.69 1018.64 1018.61 1018.60 1018.63 1018.70 1018.79 1018.89 1019.01 1019.12 1019.23 1019.31 1019.35 1019.36 1019.32 1019.23 1019.09 1018.91 1018.70
1014.29 1014.71 1015.16 1015.65 1016.18 1016.74 1017.29 1017.79 1018.21 1018.52 1018.70 1018.77 1018.75 1018.67 1018.57 1018.49 1018.44 1018.44 1018.46 1018.51 1018.56 1018.60 1018.61 1018.59 1018.56 1018.52 1018.49 1018.49 1018.51 1018.57 1018.66 1018.78 1018.90 1019.02 1019.13 1019.22 1019.28 1019.29 1019.25 1019.16 1019.03 1018.85 1018.64
1014.04 1014.46 1014.93 1015.46 1016.03 1016.64 1017.24 1017.79 1018.24 1018.56 1018.74 1018.80 1018.75 1018.64 1018.51 1018.40 1018.32 1018.30 1018.32 1018.37 1018.42 1018.47 1018.49 1018.49 1018.46 1018.44 1018.42 1018.42 1018.44 1018.50 1018.58 1018.68 1018.80 1018.92 1019.03 1019.12 1019.17 1019.20 1019.17 1019.10 1018.98 1018.82 1018.63
1013.80 1014.23 1014.72 1015.27 1015.88 1016.53 1017.16 1017.73 1018.20 1018.54 1018.73 1018.78 1018.73 1018.61 1018.48 1018.36 1018.28 1018.25 1018.27 1018.31 1018.37 1018.42 1018.45 1018.45 1018.44 1018.42 1018.41 1018.41 1018.43 1018.47 1018.53 1018.62 1018.71 1018.81 1018.90 1018.98 1019.04 1019.07 1019.06 1019.01 1018.92 1018.79 1018.62
1013.55 1014.00 1014.51 1015.08 1015.72 1016.37 1017.02 1017.60 1018.08 1018.42 1018.62 1018.69 1018.66 1018.57 1018.46 1018.36 1018.30 1018.28 1018.31 1018.36 1018.41 1018.46 1018.49 1018.50 1018.49 1018.47 1018.45 1018.44 1018.45 1018.47 1018.51 1018.56 1018.61 1018.67 1018.73 1018.79 1018.84 1018.88 1018.89 1018.88 1018.82 1018.73 1018.60
1013.30 1013.77 1014.29 1014.87 1015.51 1016.16 1016.79 1017.37 1017.84 1018.19 1018.41 1018.51 1018.53 1018.49 1018.43 1018.38 1018.36 1018.37 1018.41 1018.46 1018.52 1018.56 1018.58 1018.58 1018.57 1018.54 1018.52 1018.50 1018.49 1018.49 1018.48 1018.49 1018.49 1018.51 1018.53 1018.56 1018.60 1018.64 1018.67 1018.68 1018.67 1018.63 1018.54
1013.04 1013.52 1014.05 1014.63 1015.25 1015.88 1016.48 1017.03 1017.49 1017.84 1018.09 1018.24 1018.31 1018.34 1018.35 1018.37 1018.40 1018.45 1018.51 1018.57 1018.61 1018.64 1018.65 1018.65 1018.62 1018.60 1018.57 1018.54 1018.51 1018.47 1018.43 1018.39 1018.34 1018.31 1018.29 1018.29 1018.31 1018.36 1018.41 1018.46 1018.49 1018.49 1018.46
1012.77 1013.26 1013.80 1014.37 1014.96 1015.55 1016.11 1016.62 1017.06 1017.41 1017.68 1017.87 1018.00 1018.11 1018.20 1018.28 1018.36 1018.45 1018.52 1018.58 1018.62 1018.63 1018.63 1018.61 1018.59 1018.56 1018.54 1018.50 1018.46 1018.40 1018.33 1018.25 1018.16 1018.09 1018.03 1018.01 1018.03 1018.08 1018.16 1018.24 1018.32 1018.37 1018.37
1012.52 1013.04 1013.57 1014.12 1014.68 1015.22 1015.74 1016.20 1016.61 1016.94 1017.22 1017.44 1017.63 1017.79 1017.94 1018.07 1018.19 1018.29 1018.37 1018.42 1018.44 1018.45 1018.44 1018.43 1018.41 1018.40 1018.38 1018.36 1018.32 1018.26 1018.17 1018.07 1017.96 1017.86 1017.80 1017.77 1017.80 1017.86 1017.97 1018.09 1018.20 1018.28 1018.32
1012.35 1012.88 1013.41 1013.95 1014.46 1014.96 1015.42 1015.83 1016.19 1016.50 1016.77 1017.01 1017.22 1017.41 1017.58 1017.73 1017.85 1017.95 1018.01 1018.05 1018.06 1018.06 1018.06 1018.06 1018.07 1018.09 1018.11 1018.11 1018.09 1018.04 1017.97 1017.87 1017.76 1017.67 1017.61 1017.60 1017.65 1017.74 1017.88 1018.03 1018.17 1018.28 1018.34
1012.30 1012.84 1013.37 1013.88 1014.36 1014.81 1015.21 1015.56 1015.87 1016.15 1016.39 1016.61 1016.81 1016.99 1017.15 1017.28 1017.38 1017.44 1017.48 1017.49 1017.49 1017.49 1017.50 1017.54 1017.59 1017.66 1017.73 1017.78 1017.80 1017.78 1017.73 1017.66 1017.57 1017.51 1017.48 1017.51 1017.60 1017.74 1017.91 1018.08 1018.24 1018.36 1018.41
1012.42 1012.97 1013.49 1013.97 1014.41 1014.80 1015.14 1015.44 1015.69 1015.92 1016.12 1016.29 1016.45 1016.58 1016.69 1016.77 1016.81 1016.83 1016.82 1016.81 1016.80 1016.81 1016.85 1016.93 1017.04 1017.17 1017.30 1017.40 1017.48 1017.50 1017.49 1017.46 1017.42 1017.40 1017.43 1017.51 1017.64 1017.82 1018.02 1018.22 1018.39 1018.49 1018.52
1012.74 1013.28 1013.77 1014.22 1014.61 1014.95 1015.23 1015.47 1015.67 1015.83 1015.97 1016.08 1016.17 1016.24 1016.27 1016.27 1016.24 1016.19 1016.14 1016.09 1016.08 1016.10 1016.18 1016.32 1016.49 1016.68 1016.87 1017.04 1017.16 1017.24 1017.27 1017.28 1017.29 1017.33 1017.41 1017.55 1017.74 1017.96 1018.19 1018.39 1018.55 1018.63 1018.62
1013.25 1013.75 1014.21 1014.61 1014.95 1015.23 1015.45 1015.63 1015.77 1015.87 1015.94 1015.99 1016.00 1015.98 1015.93 1015.84 1015.74 1015.62 1015.52 1015.45 1015.43 1015.48 1015.60 1015.78 1016.01 1016.26 1016.50 1016.72 1016.88 1016.99 1017.06 1017.11 1017.17 1017.26 1017.40 1017.59 1017.83 1018.08 1018.33 1018.53 1018.67 1018.71 1018.66
1013.91 1014.36 1014.75 1015.09 1015.37 1015.59 1015.75 1015.88 1015.96 1016.00 1016.02 1016.00 1015.94 1015.84 1015.70 1015.54 1015.36 1015.18 1015.04 1014.95 1014.93 1015.00 1015.15 1015.37 1015.64 1015.93 1016.20 1016.44 1016.62 1016.76 1016.85 1016.93 1017.03 1017.17 1017.35 1017.59 1017.86 1018.14 1018.39 1018.59 1018.69 1018.70 1018.60
1014.67 1015.04 1015.35 1015.61 1015.82 1015.97 1016.08 1016.15 1016.18 1016.18 1016.15 1016.07 1015.95 1015.79 1015.59 1015.36 1015.12 1014.90 1014.73 1014.62 1014.60 1014.68 1014.84 1015.08 1015.37 1015.67 1015.95 1016.18 1016.36 1016.50 1016.61 1016.71 1016.83 1017.00 1017.22 1017.49 1017.79 1018.08 1018.34 1018.51 1018.59 1018.56 1018.42
1015.45 1015.73 1015.95 1016.12 1016.24 1016.33 1016.38 1016.40 1016.39 1016.36 1016.28 1016.17 1016.02 1015.81 1015.57 1015.30 1015.02 1014.76 1014.55 1014.43 1014.39 1014.46 1014.62 1014.85 1015.12 1015.41 1015.67 1015.88 1016.05 1016.18 1016.28 1016.40 1016.54 1016.73 1016.98 1017.28 1017.60 1017.90 1018.15 1018.32 1018.37 1018.31 1018.16
1016.20 1016.37 1016.50 1016.57 1016.62 1016.63 1016.62 1016.60 1016.55 1016.49 1016.40 1016.26 1016.09 1015.86 1015.59 1015.29 1014.98 1014.69 1014.46 1014.30 1014.23 1014.27 1014.39 1014.59 1014.83 1015.07 1015.29 1015.48 1015.63 1015.75 1015.85 1015.98 1016.14 1016.37 1016.64 1016.97 1017.30 1017.61 1017.86 1018.02 1018.06 1018.00 1017.84
1016.88 1016.95 1016.98 1016.97 1016.93 1016.88 1016.81 1016.74 1016.66 1016.57 1016.46 1016.32 1016.13 1015.89 1015.60 1015.28 1014.94 1014.63 1014.35 1014.15 1014.03 1014.01 1014.08 1014.22 1014.40 1014.59 1014.77 1014.93 1015.06 1015.18 1015.30 1015.45 1015.65 1015.91 1016.22 1016.57 1016.92 1017.24 1017.50 1017.65 1017.70 1017.64 1017.51
1017.47 1017.46 1017.40 1017.32 1017.20 1017.08 1016.96 1016.84 1016.73 1016.62 1016.48 1016.32 1016.12 1015.87 1015.56 1015.22 1014.85 1014.49 1014.17 1013.90 1013.72 1013.62 1013.61 1013.67 1013.78 1013.92 1014.07 1014.21 1014.35 1014.48 1014.64 1014.83 1015.08 1015.38 1015.74 1016.12 1016.49 1016.83 1017.10 1017.26 1017.33 1017.30 1017.20
1017.96 1017.89 1017.78 1017.63 1017.46 1017.28 1017.10 1016.94 1016.78 1016.63 1016.47 1016.28 1016.06 1015.79 1015.46 1015.08 1014.67 1014.25 1013.86 1013.51 1013.24 1013.05 1012.96 1012.94 1012.99 1013.08 1013.21 1013.35 1013.51 1013.69 1013.91 1014.16 1014.47 1014.83 1015.23 1015.64 1016.04 1016.40 1016.68 1016.87 1016.96 1016.96 1016.91
1018.38 1018.27 1018.12 1017.93 1017.71 1017.48 1017.25 1017.04 1016.83 1016.64 1016.44 1016.21 1015.95 1015.64 1015.27 1014.84 1014.37 1013.89 1013.41 1012.98 1012.61 1012.33 1012.14 1012.05 1012.04 1012.11 1012.24 1012.41 1012.62 1012.86 1013.15 1013.49 1013.87 1014.28 1014.73 1015.17 1015.60 1015.97 1016.26 1016.47 1016.60 1016.64 1016.65
1018.72 1018.60 1018.43 1018.21 1017.96 1017.69 1017.42 1017.15 1016.89 1016.64 1016.39 1016.11 1015.80 1015.43 1015.00 1014.51 1013.97 1013.41 1012.84 1012.32 1011.85 1011.48 1011.22 1011.07 1011.03 1011.09 1011.24 1011.46 1011.73 1012.06 1012.44 1012.85 1013.30 1013.77 1014.25 1014.72 1015.16 1015.53 1015.84 1016.07 1016.23 1016.32 1016.38
1018.98 1018.86 1018.68 1018.46 1018.19 1017.89 1017.58 1017.27 1016.96 1016.65 1016.33 1015.99 1015.61 1015.18 1014.68 1014.12 1013.50 1012.84 1012.19 1011.58 1011.03 1010.59 1010.26 1010.08 1010.02 1010.10 1010.29 1010.58 1010.93 1011.35 1011.81 1012.30 1012.80 1013.32 1013.82 1014.29 1014.73 1015.10 1015.41 1015.66 1015.84 1015.98 1016.09
1019.14 1019.03 1018.87 1018.64 1018.37 1018.05 1017.71 1017.36 1017.00 1016.63 1016.25 1015.84 1015.39 1014.88 1014.31 1013.67 1012.97 1012.23 1011.50 1010.81 1010.19 1009.69 1009.33 1009.13 1009.09 1009.21 1009.45 1009.81 1010.25 1010.76 1011.29 1011.84 1012.39 1012.92 1013.43 1013.89 1014.31 1014.67 1014.98 1015.23 1015.44 1015.62 1015.78
Thickness
5685 5685 5685 5685 5685 5685 5684 5683 5682 5682 5681 5681 5681 5681 5680 5680 5679 5679 5678 5678 5677 5676 5676 5676 5675 5674 5673 5672 5670 5669 5667 5665 5664 5662 5660 5658 5656 5654 5652 5650 5648 5646 5644
5680 5679 5679 5679 5679 5679 5679 5678 5677 5677 5676 5675 5675 5675 5675 5675 5675 5674 5673 5673 5672 5672 5671 5670 5670 5669 5668 5667 5666 5664 5662 5660 5658 5656 5654 5653 5651 5649 5647 5645 5643 5641 5639
5675 5674 5674 5674 5673 5673 5673 5672 5671 5671 5670 5669 5669 5669 5669 5670 5669 5669 5668 5668 5667 5666 5665 5665 5664 5663 5662 5661 5660 5658 5657 5655 5652 5650 5649 5647 5645 5643 5641 5639 5637 5635 5634
5670 5669 5668 5668 5668 5667 5667 5666 5665 5664 5664 5663 5663 5663 5663 5664 5664 5663 5662 5662 5661 5660 5659 5658 5658 5657 5656 5655 5653 5652 5650 5648 5646 5644 5642 5640 5638 5637 5635 5633 5631 5629 5627
5664 5664 5663 5663 5662 5661 5661 5660 5659 5658 5657 5656 5656 5656 5657 5657 5657 5657 5657 5656 5655 5654 5653 5652 5651 5650 5649 5648 5646 5645 5643 5641 5639 5637 5635 5633 5632 5630 5628 5626 5624 5623 5621
5658 5658 5657 5657 5656 5655 5654 5654 5653 5652 5651 5650 5649 5649 5650 5650 5650 5651 5651 5650 5649 5648 5647 5645 5645 5643 5641 5640 5639 5638 5636 5634 5632 5630 5628 5627 5625 5623 5621 5619 5617 5616 5615
5652 5652 5651 5650 5650 5650 5650 5649 5647 5645 5643 5642 5640 5640 5642 5643 5643 5643 5643 5642 5642 5641 5640 5638 5637 5635 5634 5632 5631 5630 5628 5626 5625 5623 5622 5620 5618 5616 5615 5612 5610 5609 5608
5646 5646 5646 5645 5644 5644 5643 5643 5641 5639 5638 5637 5635 5632 5632 5633 5636 5637 5635 5634 5634 5633 5632 5631 5629 5627 5626 5624 5623 5621 5620 5619 5617 5616 5614 5613 5612 5610 5608 5606 5604 5602 5601
5640 5640 5640 5640 5638 5638 5638 5638 5637 5635 5633 5630 5630 5629 5625 5626 5627 5628 5628 5627 5626 5625 5624 5623 5621 5619 5617 5616 5615 5613 5612 5610 5609 5608 5607 5606 5604 5603 5601 5599 5597 5595 5593
5632 5633 5633 5634 5633 5633 5633 5633 5632 5630 5628 5625 5623 5624 5624 5624 5619 5619 5619 5619 5618 5617 5616 5615 5613 5610 5609 5607 5605 5604 5603 5602 5601 5600 5599 5598 5596 5595 5593 5591 5589 5587 5585
5625 5626 5627 5627 5628 5629 5628 5627 5626 5625 5623 5621 5618 5617 5615 5613 5613 5611 5611 5611 5608 5609 5608 5606 5604 5602 5601 5599 5597 5595 5594 5592 5592 5592 5590 5589 5588 5586 5584 5582 5580 5579 5577
5617 5619 5620 5621 5622 5622 5622 5621 5620 5618 5617 5616 5614 5612 5610 5608 5606 5604 5602 5601 5600 5599 5598 5597 5595 5593 5592 5590 5588 5587 5585 5584 5583 5583 5581 5580 5578 5576 5574 5572 5571 5570 5569
5609 5611 5612 5614 5615 5615 5615 5615 5613 5612 5611 5609 5608 5607 5606 5604 5602 5599 5595 5592 5590 5588 5586 5586 5585 5584 5582 5581 5580 5578 5576 5575 5574 5573 5572 5570 5568 5566 5564 5562 5561 5560 5559
5603 5604 5605 5606 5608 5608 5608 5608 5607 5607 5605 5603 5602 5600 5598 5597 5595 5592 5588 5583 5579 5577 5576 5577 5576 5575 5573 5571 5570 5569 5567 5565 5564 5563 5562 5560 5558 5556 5554 5552 5551 5551 5550
5596 5597 5597 5598 5599 5600 5601 5601 5600 5599 5598 5596 5594 5592 5590 5589 5586 5584 5581 5577 5572 5570 5572 5570 5567 5566 5563 5561 5560 5559 5557 5556 5554 5553 5552 5550 5548 5546 5544 5543 5542 5541 5541
5587 5588 5590 5591 5592 5593 5594 5594 5592 5591 5590 5589 5586 5584 5582 5580 5577 5574 5571 5568 5566 5564 5564 5564 5559 5556 5554 5552 5549 5548 5547 5546 5545 5543 5541 5540 5538 5536 5534 5533 5532 5532 5531
5578 5581 5583 5585 5585 5586 5586 5585 5584 5582 5581 5579 5577 5575 5573 5570 5567 5564 5561 5558 5556 5553 5553 5551 5547 5544 5542 5541 5539 5537 5536 5534 5534 5533 5532 5530 5529 5527 5525 5524 5523 5523 5522
5570 5573 5574 5575 5576 5576 5576 5576 5575 5573 5571 5570 5567 5565 5562 5559 5556 5553 5550 5548 5545 5543 5540 5539 5535 5532 5530 5529 5528 5526 5525 5524 5523 5523 5521 5520 5519 5517 5515 5515 5514 5513 5513
5563 5564 5565 5565 5566 5567 5567 5566 5565 5563 5560 5558 5555 5553 5550 5547 5544 5541 5538 5536 5534 5531 5528 5526 5524 5520 5517 5516 5515 5513 5512 5511 5511 5511 5511 5510 5508 5507 5506 5505 5504 5504 5503
5554 5555 5556 5556 5556 5556 5556 5554 5552 5550 5548 5545 5542 5540 5537 5534 5532 5529 5526 5524 5520 5517 5515 5513 5511 5508 5505 5503 5502 5501 5500 5499 5499 5499 5500 5499 5498 5496 5496 5495 5494 5493 5493
5544 5545 5545 5545 5544 5543 5542 5542 5540 5538 5536 5533 5530 5526 5523 5520 5518 5515 5512 5510 5506 5504 5502 5500 5498 5496 5494 5492 5494 5493 5491 5487 5486 5487 5487 5487 5487 5486 5485 5484 5483 5483 5483
5533 5533 5533 5532 5531 5530 5530 5530 5528 5525 5522 5519 5516 5512 5509 5506 5503 5500 5498 5496 5494 5492 5490 5489 5488 5488 5488 5487 5485 5482 5479 5476 5475 5475 5475 5474 5475 5474 5474 5474 5473 5473 5473
5521 5521 5520 5520 5520 5519 5518 5516 5514 5512 5508 5504 5500 5497 5495 5492 5488 5485 5483 5482 5481 5480 5479 5478 5478 5480 5479 5479 5475 5472 5470 5470 5470 5468 5465 5463 5462 5462 5464 5464 5463 5463 5463
5509 5508 5508 5507 5506 5505 5504 5502 5500 5497 5493 5489 5486 5482 5480 5477 5473 5469 5468 5466 5466 5466 5467 5466 5468 5469 5470 5470 5468 5466 5463 5458 5454 5454 5456 5454 5451 5452 5453 5454 5454 5454 5454
5497 5495 5494 5493 5491 5490 5489 5488 5486 5482 5479 5475 5472 5469 5465 5462 5459 5456 5453 5452 5452 5453 5453 5454 5455 5456 5457 5457 5456 5452 5449 5448 5445 5443 5444 5445 5443 5442 5441 5443 5444 5445 5445
5484 5483 5481 5479 5477 5476 5475 5474 5471 5468 5465 5463 5460 5455 5450 5447 5445 5442 5439 5438 5439 5440 5439 5439 5441 5442 5443 5445 5445 5444 5444 5441 5438 5435 5434 5435 5434 5433 5431 5432 5433 5435 5435